Location: Mount Kobau Star Party
(49.1167°N, 119.7333°W)
Time: 12:34:33
(UTC-07:00)

ARIANE 6 FM1 Upper Stage - Pass Details

Date: 13 April 2026
Orbit: 526 x 601 km, 62.0° (Epoch: 18 May)

Event Time Altitude Azimuth Distance (km) Brightness Sun altitude
Rises 00:14:43 0° 306° (NW) 2,689 6.8 -31.0°
Reaches altitude 10° 00:18:00 10° 335° (NNW) 1,786 6.1 -31.1°
Maximum altitude 00:19:58 13° 4° (N) 1,584 5.7 -31.1°
Drops below altitude 10° 00:21:55 10° 34° (NE) 1,776 5.7 -31.2°
Enters shadow 00:24:50 - 61° (ENE) 2,555 6.2 -31.3°
